User: anonymous   Login
Location: Unspecified
(0.0000°N, 0.0000°E)
Time: 12:15:33
(UTC+00:00)
Language:

A-11 Canister half - Orbit

View from above orbital plane
View from above orbital plane
View from above satellite
View from above satellite

Ground track
Ground track

The orbit data is extracted from the following two-line orbital elements,

1 00053U 60009E   16337.85296972 -.00000084  00000-0  00000+0 0  9993
2 00053  47.2774 284.9575 0097668 222.8758 136.4384 12.17190719511128
Epoch (UTC): 02 December 2016 20:28:16
Eccentricity: 0.0097668
inclination: 47.2774°
perigee height: 1527 km
apogee height: 1683 km
right ascension of ascending node: 284.9575°
argument of perigee: 222.8758°
revolutions per day: 12.17190719
mean anomaly at epoch: 136.4384°
orbit number at epoch: 51112

The dashed part of the orbit path shows where the satellite is in the earth's shadow,  

DLR